Weather History for Provo, UT

Change the Weather History Date:

Friday, June 7, 2013

  Actual Average Record
Temperature  
Mean Temperature 70 °F -  
Max Temperature 87 °F 74 °F 95 °F (1985)
Min Temperature 53 °F 48 °F 42 °F (2005)
Cooling Degree Days 5    
Growing Degree Days 20 (Base 50)    
Moisture  
Dew Point 44 °F    
Average Humidity 48    
Maximum Humidity 67    
Minimum Humidity 18    
Precipitation  
Precipitation 0.00 in - - ()
Sea Level Pressure  
Sea Level Pressure 30.01 in    
Wind  
Wind Speed 3 mph (SSE)    
Max Wind Speed 14 mph    
Max Gust Speed -    
Visibility 12 miles    
Events      
Averages and records for this station are not official NWS values.
T = Trace of Precipitation, MM = Missing Value Source: NWS Daily Summary

Daily Weather History Graph

Daily Weather History Graph

Search for Another Location

Airport:

Trip Planner

Search our weather history database for the weather conditions in past years. The results will help you decide how hot, cold, wet, or windy it might be!

Date:

Astronomy

Jun. 07, 2013 Rise Set
Actual Time 5:57 AM MDT 8:54 PM MDT
Civil Twilight 5:24 AM MDT 9:27 PM MDT
Nautical Twilight 4:43 AM MDT 10:08 PM MDT
Astronomical Twilight 3:55 AM MDT 10:56 PM MDT
Moon 5:22 AM MDT (6/7) 8:11 PM MDT (6/7)
Length of Visible Light 16h 02m
Length of Day
14h 57m
Waning Crescent, 1% of the Moon is Illuminated
Jun 7
Waning Crescent
Jun 8
New
Jun 16
First Quarter
Jun 23
Full
Jun 29
Last Quarter

Hourly Weather History & Observations

Time (MDT) Temp. Dew Point Humidity Pressure Visibility Wind Dir Wind Speed Gust Speed Precip Events Conditions
12:15 AM 60.8 °F 44.6 °F 55% 30.04 in 10.0 mi SE 8.1 mph - N/A   Clear
12:35 AM 60.8 °F 44.6 °F 55% 30.04 in 10.0 mi Calm Calm - N/A   Clear
12:55 AM 60.8 °F 46.4 °F 59% 30.04 in 10.0 mi Calm Calm - N/A   Clear
1:15 AM 60.8 °F 46.4 °F 59% 30.05 in 10.0 mi Calm Calm - N/A   Clear
1:35 AM 60.8 °F 44.6 °F 55% 30.04 in 10.0 mi Calm Calm - N/A   Clear
1:55 AM 59.0 °F 46.4 °F 63% 30.05 in 10.0 mi Calm Calm - N/A   Clear
2:15 AM 59.0 °F 44.6 °F 59% 30.04 in 10.0 mi Calm Calm - N/A   Clear
2:35 AM 57.2 °F 44.6 °F 63% 30.04 in 10.0 mi SSE 3.5 mph - N/A   Clear
2:55 AM 59.0 °F 44.6 °F 59% 30.04 in 10.0 mi ESE 3.5 mph - N/A   Clear
3:15 AM 57.2 °F 44.6 °F 63% 30.04 in 10.0 mi Calm Calm - N/A   Clear
3:35 AM 55.4 °F 44.6 °F 67% 30.05 in 10.0 mi Calm Calm - N/A   Clear
3:55 AM 55.4 °F 44.6 °F 67% 30.05 in 10.0 mi South 6.9 mph - N/A   Clear
4:15 AM 55.4 °F 42.8 °F 63% 30.05 in 10.0 mi SSE 3.5 mph - N/A   Clear
4:35 AM 55.4 °F 42.8 °F 63% 30.05 in 10.0 mi East 3.5 mph - N/A   Clear
4:55 AM 53.6 °F 42.8 °F 67% 30.05 in 10.0 mi ESE 4.6 mph - N/A   Clear
5:15 AM 53.6 °F 39.2 °F 58% 30.05 in 10.0 mi ESE 3.5 mph - N/A   Clear
5:35 AM 53.6 °F 37.4 °F 54% 30.05 in 10.0 mi ESE 5.8 mph - N/A   Clear
5:55 AM 55.4 °F 39.2 °F 54% 30.05 in 10.0 mi SE 3.5 mph - N/A   Clear
6:15 AM 53.6 °F 37.4 °F 54% 30.05 in 10.0 mi Calm Calm - N/A   Clear
6:35 AM 53.6 °F 37.4 °F 54% 30.06 in 10.0 mi Calm Calm - N/A   Clear
6:55 AM 55.4 °F 39.2 °F 54% 30.06 in 10.0 mi SE 3.5 mph - N/A   Clear
6:56 AM 55.4 °F 41.0 °F 58% 30.06 in 15.0 mi SE 3.5 mph - N/A   Clear
7:56 AM 64.4 °F 41.0 °F 42% 30.07 in 15.0 mi SE 5.8 mph - N/A   Partly Cloudy
8:55 AM 66.2 °F 39.2 °F 37% 30.08 in 15.0 mi ESE 4.6 mph - N/A   Partly Cloudy
9:55 AM 71.6 °F 42.8 °F 35% 30.07 in 15.0 mi WSW 3.5 mph - N/A   Partly Cloudy
10:57 AM 73.4 °F 44.6 °F 36% 30.06 in 15.0 mi Calm Calm - N/A   Scattered Clouds
11:51 AM 77.0 °F 44.6 °F 32% 30.05 in 15.0 mi SSW 4.6 mph - N/A   Scattered Clouds
12:48 PM 80.6 °F 42.8 °F 26% 30.03 in 15.0 mi Calm Calm - N/A   Scattered Clouds
1:52 PM 84.2 °F 44.6 °F 25% 30.01 in 15.0 mi WSW 4.6 mph - N/A   Scattered Clouds
2:47 PM 86.0 °F 41.0 °F 20% 30.00 in 15.0 mi WNW 4.6 mph - N/A   Scattered Clouds
4:50 PM 87.8 °F 39.2 °F 18% 29.96 in 15.0 mi NW 13.8 mph - N/A   Scattered Clouds
6:50 PM 84.2 °F 37.4 °F 19% 29.93 in 15.0 mi NW 9.2 mph - N/A   Mostly Cloudy
7:50 PM 84.2 °F 39.2 °F 20% 29.91 in 15.0 mi Variable 4.6 mph - N/A   Scattered Clouds
8:50 PM 80.6 °F 37.4 °F 21% 29.91 in 15.0 mi Variable 5.8 mph - N/A   Partly Cloudy
9:15 PM 75.2 °F 53.6 °F 47% 29.90 in 10.0 mi SW 6.9 mph - N/A   Clear
9:55 PM 75.2 °F 55.4 °F 50% 29.91 in 8.0 mi Calm Calm - N/A   Clear
10:15 PM 71.6 °F 50.0 °F 46% 29.92 in 10.0 mi ESE 5.8 mph - N/A   Clear
10:55 PM 68.0 °F 48.2 °F 49% 29.92 in 10.0 mi South 6.9 mph - N/A   Clear
11:15 PM 68.0 °F 48.2 °F 49% 29.92 in 10.0 mi SSE 5.8 mph - N/A   Clear
11:35 PM 66.2 °F 48.2 °F 52% 29.92 in 10.0 mi East 4.6 mph - N/A   Clear
11:55 PM 64.4 °F 48.2 °F 56% 29.92 in 10.0 mi Calm Calm - N/A   Clear